Regional Weather Roundup
Issued by NWS Kansas City/Pleasant Hill, MO

Home | Current Version | Previous Version | Text Only | Print | Product List | Glossary On
Versions: 1 2 3 4 5 6 7 8 9 10 11 12 13 14 15 16 17 18 19 20 21 22 23 24 25 26 27 28 29 30 31 32 33 34 35 36 37 38 39 40 41 42 43 44 45 46 47 48 49 50
000
ASUS43 KEAX 191810
RWREAX

WEATHER ROUNDUP FOR EASTERN KANSAS AND NORTHWEST MISSOURI
NATIONAL WEATHER SERVICE KANSAS CITY/PLEASANT HILL MO
100 PM CDT SAT AUG 19 2017

KSZ040-057-103>105-MOZ028-029-037-043-191900-
...KANSAS CITY METROPOLITAN AREA...

CITY           SKY/WX    TMP DP  RH WIND       PRES   REMARKS
K.C. INTL      MOSUNNY   87  71  58 VRB3      29.98F HX  93
6HR MIN TEMP:  66; 6HR MAX TEMP:  87;

K.C. DOWNTOWN  SUNNY     88  67  49 CALM      29.96F HX  91
6HR MIN TEMP:  70; 6HR MAX TEMP:  90;

LEES SUMMIT    SUNNY     87  70  56 VRB3      29.98F HX  92
6HR MIN TEMP:  68; 6HR MAX TEMP:  88;

OLATHE - IXD   SUNNY     88  66  48 CALM      29.98F HX  90
6HR MIN TEMP:  66; 6HR MAX TEMP:  88;

OLATHE - OJC   SUNNY     87  68  52 CALM      29.98F HX  90
6HR MIN TEMP:  67; 6HR MAX TEMP:  87;

LAWRENCE       SUNNY     88  69  53 E5        29.97F HX  92

$$

MOZ001>008-011>017-020>025-030>033-038>040-044>046-053-054-191900-
...NORTHERN AND CENTRAL MISSOURI...

CITY           SKY/WX    TMP DP  RH WIND       PRES   REMARKS
ST. JOSEPH     SUNNY     85  69  58 S5        29.97F
6HR MIN TEMP:  62; 6HR MAX TEMP:  87;

WARRENSBURG    SUNNY     86  68  54 CALM      29.97F
WHITEMAN AFB   SUNNY     86  74  67 NE3       29.97S HX  93
6HR MIN TEMP:  67; 6HR MAX TEMP:  86;

CLINTON        SUNNY     88  73  62 S3        29.98S HX  96
SEDALIA        SUNNY     88  73  61 CALM      29.99S HX  95
6HR MIN TEMP:  70; 6HR MAX TEMP:  89;

WARSAW         NOT AVBL
CHILLICOTHE      N/A     88  65  46 MISG      29.96F HX  90
6HR MIN TEMP:  61; 6HR MAX TEMP:  89;

KIRKSVILLE     SUNNY     89  55  31 W8        29.96F
6HR MIN TEMP:  61; 6HR MAX TEMP:  90;


$$

MOZ041-047>049-056>058-063>065-088>090-097-191900-
...EASTERN AND SOUTHERN MISSOURI...

CITY           SKY/WX    TMP DP  RH WIND       PRES   REMARKS
ST. LOUIS INTL MOSUNNY   88  69  53 W8        29.96F HX  92
6HR MIN TEMP:  71; 6HR MAX TEMP:  88;

SPIRIT OF STL  MOSUNNY   87  71  58 VRB6      29.95F HX  93
COLUMBIA       SUNNY     87  71  58 CALM      29.97F HX  93
JEFFERSON CITY SUNNY     88  71  57 CALM      29.96S HX  94
ROLLA          MOSUNNY   86  73  65 VRB5      30.00F HX  93
OSAGE BEACH    SUNNY     86  72  62 SW7       29.99S HX  92
SPRINGFIELD    SUNNY     88  76  67 W8        30.00F HX  99
BRANSON        MOSUNNY   86  75  70 NW6       30.03F HX  95
JOPLIN         SUNNY     91  78  65 SW12      29.99F HX 106
WEST PLAINS    MOSUNNY   89  70  53 CALM      30.01F HX  94

$$

IAZ060-094-KSZ022-034>040-054-083-096-NEZ052-066-093-191900-
...KANSAS...SOUTHEAST NEBRASKA AND IOWA...

CITY           SKY/WX    TMP DP  RH WIND       PRES   REMARKS
TOPEKA         SUNNY     89  69  51 E6        29.96F HX  93
6HR MIN TEMP:  63; 6HR MAX TEMP:  89;

MANHATTAN      SUNNY     88  72  58 E8        29.95F HX  94
EMPORIA        SUNNY     87  72  60 NE9       29.97F HX  93
CHANUTE        SUNNY     91  77  63 VRB6      29.96F HX 104
WICHITA        MOSUNNY   94  74  52 SE5       29.94F HX 104
OMAHA          SUNNY     82  62  50 SE5       29.96F
LINCOLN        SUNNY     82  63  52 S5        29.97F
FALLS CITY     SUNNY     84  65  52 SE6       29.97F
LAMONI         SUNNY     84  59  42 VRB5      29.97F
DES MOINES     MOSUNNY   78  65  63 CALM      29.95F

$$




USA.gov is the U.S. government's official web portal to all federal, state and local government web resources and services.